< < Back
Terminal Aerodrome Forecast


Current Version              Previous Versions:   1  2  3  4  5  6  7  8  9  

Terminal Aerodrome Forecast

143
FTUS42 KILM 231720
TAFILM
TAF
KILM 231720Z 2318/2418 09008KT P6SM SCT050 BKN070
     FM232300 03002KT P6SM SKC
     FM241400 03008KT P6SM SCT050=

Latest METAR

941
SAUS70 KWBC 240400 RRB
MTRILM
METAR KILM 240353Z 07006KT 10SM CLR 25/18 A3027 RMK AO2 SLP248
T02500183


USA.gov is the U.S. government's official web portal to all federal, state and local government web resources and services.